EW4279 Weather Reports


time (UTC)temp
C
wind
direction
speed
KPH
gust
KPH
rain 1hr
cm
rain 24hr
cm
rain mn
cm
humidity
%
barometer
mb
20260505200030 25 281 8.0 22.5 0.00 0.00 0.00 46 1002.6
20260505194528 25 211 12.9 30.6 0.00 0.00 0.00 44 1002.7
20260505193026 25 144 11.3 25.7 0.00 0.00 0.00 45 1002.9
20260505191526 25 146 9.7 25.7 0.00 0.00 0.00 48 1003.2
20260505190035 25 319 6.4 29.0 0.00 0.00 0.00 45 1003.6
20260505184527 25 109 6.4 20.9 0.00 0.00 0.00 45 1003.7
20260505183022 26 156 8.0 25.7 0.00 0.00 0.00 44 1003.9
20260505181520 26 177 3.2 24.1 0.00 0.00 0.00 44 1004.0
20260505180022 24 260 8.0 20.9 0.00 0.00 0.00 50 1004.1
20260505174516 24 107 9.7 22.5 0.00 0.00 0.00 48 1004.1
20260505173013 26 119 9.7 24.1 0.00 0.00 0.00 43 1004.5
20260505171510 26 260 4.8 30.6 0.00 0.00 0.00 41 1004.6
20260505170008 26 175 4.8 19.3 0.00 0.00 0.00 42 1004.9
20260505164505 25 238 6.4 20.9 0.00 0.00 0.00 43 1005.5
20260505163002 25 241 8.0 19.3 0.00 0.00 0.00 43 1005.8
20260505161602 25 275 6.4 22.5 0.00 0.00 0.00 43 1006.0
20260505153101 22 262 4.8 24.1 0.00 0.00 0.00 47 1006.8
20260505151549 22 210 6.4 17.7 0.00 0.00 0.00 46 1007.1
20260505124527 17 209 3.2 8.0 0.00 0.00 0.00 58 1007.4
20260505123022 16 213 4.8 9.7 0.00 0.00 0.00 60 1007.0
20260505121520 15 190 4.8 12.9 0.00 0.00 0.00 61 1007.4
20260505120032 15 214 1.6 12.9 0.00 0.00 0.00 64 1007.5
20260505114513 14 194 3.2 9.7 0.00 0.00 0.00 65 1007.6
20260505113012 13 209 4.8 9.7 0.00 0.00 0.00 67 1007.7
20260505111519 11 210 3.2 9.7 0.00 0.00 0.00 68 1007.6
20260505101504 9 242 0.0 6.4 0.00 0.00 0.00 66 1007.8
20260505100003 9 244 0.0 6.4 0.00 0.00 0.00 68 1007.6
20260505094500 9 244 0.0 4.8 0.00 0.00 0.00 69 1007.6
20260505093058 10 245 0.0 4.8 0.00 0.00 0.00 70 1007.7
20260505091619 10 246 0.0 0.0 0.00 0.00 0.00 70 1007.7
20260505090120 10 246 0.0 0.0 0.00 0.00 0.00 70 1007.7
20260505084612 10 246 0.0 4.8 0.00 0.00 0.00 70 1007.8
20260505083106 11 246 0.0 8.0 0.00 0.00 0.00 69 1007.9
20260505081601 11 248 1.6 6.4 0.00 0.00 0.00 69 1008.0
20260505080100 11 245 0.0 8.0 0.00 0.00 0.00 69 1008.0
20260505074551 11 245 0.0 6.4 0.00 0.00 0.00 68 1007.9
20260505073055 11 248 1.6 6.4 0.00 0.00 0.00 68 1007.9
20260505071605 11 261 1.6 9.7 0.00 0.00 0.00 68 1007.8
20260505070053 11 244 1.6 8.0 0.00 0.00 0.00 68 1007.8
20260505064548 11 231 0.0 12.9 0.00 0.00 0.00 68 1007.9
20260505063052 11 234 3.2 9.7 0.00 0.00 0.00 68 1007.9
20260505061547 11 207 3.2 12.9 0.00 0.00 0.00 67 1007.8
20260505060058 12 217 0.0 9.7 0.00 0.00 0.00 67 1007.9
20260505054545 12 230 0.0 8.0 0.00 0.00 0.00 66 1007.9
20260505053045 12 227 3.2 11.3 0.00 0.00 0.00 65 1007.9
20260505051547 12 238 0.0 9.7 0.00 0.00 0.00 65 1007.9
20260505041548 11 216 1.6 9.7 0.00 0.00 0.00 67 1007.6
20260505040033 10 249 3.2 12.9 0.00 0.00 0.00 69 1007.4
20260505034526 10 246 4.8 16.1 0.00 0.00 0.00 69 1007.1
20260505033021 10 225 1.6 8.0 0.00 0.00 0.00 69 1007.2
20260505031517 10 238 0.0 0.0 0.00 0.00 0.00 69 1007.1
20260505030012 10 238 0.0 0.0 0.00 0.00 0.00 69 1007.0
20260505024508 10 238 0.0 0.0 0.00 0.00 0.00 69 1007.0
20260505023003 11 238 0.0 1.6 0.00 0.00 0.00 69 1007.0
20260505021600 11 238 0.0 0.0 0.00 0.00 0.00 68 1006.9
20260505020100 11 238 0.0 0.0 0.00 0.00 0.00 68 1006.8
20260505014606 11 238 0.0 0.0 0.00 0.00 0.00 67 1006.8
20260505013051 12 238 0.0 0.0 0.00 0.00 0.00 67 1006.6
20260505011544 12 238 0.0 0.0 0.00 0.00 0.00 67 1006.4
20260505010050 13 238 0.0 0.0 0.00 0.00 0.00 65 1006.2
20260505004545 13 238 0.0 0.0 0.00 0.00 0.00 64 1006.1
20260505003049 13 238 0.0 0.0 0.00 0.00 0.00 61 1005.8
20260505001525 14 237 0.0 0.0 0.00 0.00 0.00 59 1005.5
20260505000026 14 237 0.0 0.0 0.00 0.00 0.00 60 1005.4
20260504234516 14 237 0.0 4.8 0.00 0.00 0.00 58 1005.2
20260504233013 16 237 0.0 0.0 0.00 0.00 0.00 55 1005.2
20260504231506 17 237 0.0 3.2 0.00 0.00 0.00 48 1004.9
20260504230002 18 237 1.6 6.4 0.00 0.00 0.00 43 1004.7
20260504224559 18 237 3.2 8.0 0.00 0.00 0.00 42 1004.6
20260504223110 19 230 1.6 12.9 0.00 0.00 0.00 41 1004.6
20260504221551 19 261 0.0 9.7 0.00 0.00 0.00 42 1004.7
20260504220045 20 240 6.4 12.9 0.00 0.00 0.00 39 1004.6
20260504214541 20 257 3.2 12.9 0.00 0.00 0.00 39 1004.5
20260504213036 20 265 3.2 17.7 0.00 0.00 0.00 39 1004.6
20260504211544 20 260 3.2 14.5 0.00 0.00 0.00 40 1004.6
20260504210028 20 227 3.2 17.7 0.00 0.00 0.00 39 1004.5
20260504204523 20 249 8.0 20.9 0.00 0.00 0.00 39 1004.5
20260504203018 20 321 9.7 19.3 0.00 0.00 0.00 39 1004.6
20260504201514 20 284 11.3 24.1 0.00 0.00 0.00 40 1004.7